Terug naar catalogus

STARLINK-5758

ActiefCommunicatieVLEO
NORAD 56037·PAYLOAD·🇺🇸 United States

Gelanceerd Mar 24, 2023 vanaf Cape Canaveral Space Force Station

Loading…

Volgende Passages (komende 24 uur)

TLE

VersSource: CelesTrak SupGP

Epoch: Sep 14, 2026, 21:23 UTC

1 56037C 23042BD  26257.89145833  .00055805  00000+0  20209-2 0  2579
2 56037  43.0049  42.2395 0001986 276.4465 243.9650 15.27555546    11

Volg STARLINK-5758 in realtime met AllMySat

Download on the App Store